owner,sensor,date,latitude,longitude,vertical_datum,wind_speed,wind_to_direction,wind_speed_of_gust,qcFlag 
TCOON,ioos:station:TCOON:031:1,2019-11-01T00:18:00Z,28.4073,-96.7122,0.0,2.2,319.0,3.0,'11111222,11111222,11111222' 
TCOON,ioos:station:TCOON:031:1,2019-11-01T01:18:00Z,28.4073,-96.7122,0.0,1.6,317.0,2.6,'11111222,11111222,11111222' 
TCOON,ioos:station:TCOON:031:1,2019-11-01T02:18:00Z,28.4073,-96.7122,0.0,2.3,324.0,2.9,'11111222,11111222,11111222' 
TCOON,ioos:station:TCOON:031:1,2019-11-01T03:18:00Z,28.4073,-96.7122,0.0,1.8,329.0,2.6,'11111222,11111222,11111222' 
TCOON,ioos:station:TCOON:031:1,2019-11-01T04:18:00Z,28.4073,-96.7122,0.0,1.3,331.0,1.9,'11111222,11111222,11111222' 
TCOON,ioos:station:TCOON:031:1,2019-11-01T05:18:00Z,28.4073,-96.7122,0.0,2.5,347.0,3.6,'11111222,11111222,11111222' 
TCOON,ioos:station:TCOON:031:1,2019-11-01T06:18:00Z,28.4073,-96.7122,0.0,2.2,345.0,3.2,'11111222,11111222,11111222' 
TCOON,ioos:station:TCOON:031:1,2019-11-01T07:18:00Z,28.4073,-96.7122,0.0,3.1,353.0,3.8,'11111222,11111222,11111222' 
TCOON,ioos:station:TCOON:031:1,2019-11-01T08:18:00Z,28.4073,-96.7122,0.0,2.3,351.0,2.9,'11111222,11111222,11111222' 
TCOON,ioos:station:TCOON:031:1,2019-11-01T09:18:00Z,28.4073,-96.7122,0.0,1.8,2.0,2.8,'11111222,11111222,11111222' 
TCOON,ioos:station:TCOON:031:1,2019-11-01T10:18:00Z,28.4073,-96.7122,0.0,1.8,347.0,2.3,'11111222,11111222,11111222' 
TCOON,ioos:station:TCOON:031:1,2019-11-01T11:18:00Z,28.4073,-96.7122,0.0,1.8,350.0,2.7,'11111222,11111222,11111222' 
TCOON,ioos:station:TCOON:031:1,2019-11-01T12:18:00Z,28.4073,-96.7122,0.0,1.7,29.0,2.6,'11111222,11111222,11111222' 
TCOON,ioos:station:TCOON:031:1,2019-11-01T13:18:00Z,28.4073,-96.7122,0.0,2.6,7.0,3.6,'11111222,11111222,11111222' 
TCOON,ioos:station:TCOON:031:1,2019-11-01T14:18:00Z,28.4073,-96.7122,0.0,2.7,360.0,4.0,'11111222,11144222,11111222' 
TCOON,ioos:station:TCOON:031:1,2019-11-01T15:18:00Z,28.4073,-96.7122,0.0,3.5,15.0,5.0,'11111222,11111222,11111222' 
TCOON,ioos:station:TCOON:031:1,2019-11-01T16:18:00Z,28.4073,-96.7122,0.0,3.7,33.0,5.0,'11111222,11111222,11111222' 
TCOON,ioos:station:TCOON:031:1,2019-11-01T17:18:00Z,28.4073,-96.7122,0.0,1.4,41.0,3.1,'11111222,11111222,11111222' 
TCOON,ioos:station:TCOON:031:1,2019-11-01T18:18:00Z,28.4073,-96.7122,0.0,0.3,131.0,1.7,'11111222,11111222,11111222' 
TCOON,ioos:station:TCOON:031:1,2019-11-01T19:18:00Z,28.4073,-96.7122,0.0,0.7,331.0,2.0,'11111222,11111222,11111222' 
TCOON,ioos:station:TCOON:031:1,2019-11-01T20:18:00Z,28.4073,-96.7122,0.0,2.8,188.0,3.2,'11111222,11111222,11111222' 
TCOON,ioos:station:TCOON:031:1,2019-11-01T21:18:00Z,28.4073,-96.7122,0.0,3.5,194.0,3.7,'11111222,11111222,11111222' 
TCOON,ioos:station:TCOON:031:1,2019-11-01T22:18:00Z,28.4073,-96.7122,0.0,1.1,235.0,1.7,'11111222,11111222,11111222' 
TCOON,ioos:station:TCOON:031:1,2019-11-01T23:18:00Z,28.4073,-96.7122,0.0,1.9,86.0,2.5,'11111222,11111222,11111222' 
TCOON,ioos:station:TCOON:031:1,2019-11-02T00:18:00Z,28.4073,-96.7122,0.0,1.7,31.0,2.7,'11111222,11111222,11111222' 
TCOON,ioos:station:TCOON:031:1,2019-11-02T01:18:00Z,28.4073,-96.7122,0.0,2.0,30.0,2.9,'11111222,11111222,11111222' 
TCOON,ioos:station:TCOON:031:1,2019-11-02T02:18:00Z,28.4073,-96.7122,0.0,2.2,31.0,3.1,'11111222,11111222,11111222' 
TCOON,ioos:station:TCOON:031:1,2019-11-02T03:18:00Z,28.4073,-96.7122,0.0,2.5,24.0,3.8,'11111222,11111222,11111222' 
TCOON,ioos:station:TCOON:031:1,2019-11-02T04:18:00Z,28.4073,-96.7122,0.0,2.1,19.0,2.9,'11111222,11111222,11111222' 
TCOON,ioos:station:TCOON:031:1,2019-11-02T05:18:00Z,28.4073,-96.7122,0.0,2.4,21.0,3.8,'11111222,11111222,11111222' 
TCOON,ioos:station:TCOON:031:1,2019-11-02T06:18:00Z,28.4073,-96.7122,0.0,2.7,11.0,3.4,'11111222,11111222,11111222' 
TCOON,ioos:station:TCOON:031:1,2019-11-02T07:18:00Z,28.4073,-96.7122,0.0,3.1,24.0,4.7,'11111222,11111222,11111222' 
TCOON,ioos:station:TCOON:031:1,2019-11-02T08:18:00Z,28.4073,-96.7122,0.0,3.5,356.0,4.7,'11111222,11111222,11111222' 
TCOON,ioos:station:TCOON:031:1,2019-11-02T09:18:00Z,28.4073,-96.7122,0.0,2.8,7.0,3.7,'11111222,11111222,11111222' 
TCOON,ioos:station:TCOON:031:1,2019-11-02T10:18:00Z,28.4073,-96.7122,0.0,3.4,8.0,4.7,'11111222,11111222,11111222' 
TCOON,ioos:station:TCOON:031:1,2019-11-02T11:18:00Z,28.4073,-96.7122,0.0,2.7,8.0,3.3,'11111222,11111222,11111222' 
TCOON,ioos:station:TCOON:031:1,2019-11-02T12:18:00Z,28.4073,-96.7122,0.0,2.7,3.0,3.3,'11111222,11111222,11111222' 
TCOON,ioos:station:TCOON:031:1,2019-11-02T13:18:00Z,28.4073,-96.7122,0.0,3.3,0.0,4.8,'11111222,11111222,11111222' 
TCOON,ioos:station:TCOON:031:1,2019-11-02T14:18:00Z,28.4073,-96.7122,0.0,4.6,11.0,6.1,'11111222,11111222,11111222' 
TCOON,ioos:station:TCOON:031:1,2019-11-02T15:18:00Z,28.4073,-96.7122,0.0,4.2,9.0,6.7,'11111222,11111222,11111222' 
TCOON,ioos:station:TCOON:031:1,2019-11-02T16:18:00Z,28.4073,-96.7122,0.0,4.2,12.0,6.4,'11111222,11111222,11111222' 
TCOON,ioos:station:TCOON:031:1,2019-11-02T17:18:00Z,28.4073,-96.7122,0.0,4.5,358.0,7.0,'11111222,11111222,11111222' 
TCOON,ioos:station:TCOON:031:1,2019-11-02T18:18:00Z,28.4073,-96.7122,0.0,4.7,1.0,7.8,'11111222,11111222,11111222' 
TCOON,ioos:station:TCOON:031:1,2019-11-02T19:18:00Z,28.4073,-96.7122,0.0,4.6,350.0,6.8,'11111222,11111222,11111222' 
TCOON,ioos:station:TCOON:031:1,2019-11-02T20:18:00Z,28.4073,-96.7122,0.0,4.3,23.0,6.2,'11111222,11111222,11111222' 
TCOON,ioos:station:TCOON:031:1,2019-11-02T21:18:00Z,28.4073,-96.7122,0.0,4.6,7.0,6.4,'11111222,11111222,11111222' 
TCOON,ioos:station:TCOON:031:1,2019-11-02T22:18:00Z,28.4073,-96.7122,0.0,3.1,358.0,6.2,'11111222,11111222,11111222' 
TCOON,ioos:station:TCOON:031:1,2019-11-02T23:18:00Z,28.4073,-96.7122,0.0,2.7,8.0,3.8,'11111222,11111222,11111222' 
TCOON,ioos:station:TCOON:031:1,2019-11-03T00:18:00Z,28.4073,-96.7122,0.0,1.2,42.0,1.8,'11111222,11111222,11111222' 
TCOON,ioos:station:TCOON:031:1,2019-11-03T01:18:00Z,28.4073,-96.7122,0.0,1.8,24.0,2.9,'11111222,11111222,11111222' 
TCOON,ioos:station:TCOON:031:1,2019-11-03T02:18:00Z,28.4073,-96.7122,0.0,1.7,25.0,2.1,'11111222,11111222,11111222' 
TCOON,ioos:station:TCOON:031:1,2019-11-03T03:18:00Z,28.4073,-96.7122,0.0,1.6,46.0,2.2,'11111222,11111222,11111222' 
TCOON,ioos:station:TCOON:031:1,2019-11-03T04:18:00Z,28.4073,-96.7122,0.0,1.3,49.0,1.8,'11111222,11111222,11111222' 
TCOON,ioos:station:TCOON:031:1,2019-11-03T05:18:00Z,28.4073,-96.7122,0.0,1.8,29.0,2.3,'11111222,11111222,11111222' 
TCOON,ioos:station:TCOON:031:1,2019-11-03T06:18:00Z,28.4073,-96.7122,0.0,1.6,8.0,2.1,'11111222,11111222,11111222' 
TCOON,ioos:station:TCOON:031:1,2019-11-03T07:18:00Z,28.4073,-96.7122,0.0,1.9,15.0,2.3,'11111222,11111222,11111222' 
TCOON,ioos:station:TCOON:031:1,2019-11-03T08:18:00Z,28.4073,-96.7122,0.0,2.1,359.0,2.7,'11111222,11111222,11111222' 
TCOON,ioos:station:TCOON:031:1,2019-11-03T09:18:00Z,28.4073,-96.7122,0.0,1.8,13.0,2.1,'11111222,11111222,11111222' 
TCOON,ioos:station:TCOON:031:1,2019-11-03T10:18:00Z,28.4073,-96.7122,0.0,2.1,15.0,2.4,'11111222,11111222,11111222' 
TCOON,ioos:station:TCOON:031:1,2019-11-03T11:18:00Z,28.4073,-96.7122,0.0,1.6,336.0,2.4,'11111222,11111222,11111222' 
TCOON,ioos:station:TCOON:031:1,2019-11-03T12:18:00Z,28.4073,-96.7122,0.0,1.8,341.0,2.5,'11111222,11111222,11111222' 
TCOON,ioos:station:TCOON:031:1,2019-11-03T13:18:00Z,28.4073,-96.7122,0.0,3.1,16.0,3.7,'11111222,11111222,11111222' 
TCOON,ioos:station:TCOON:031:1,2019-11-03T14:18:00Z,28.4073,-96.7122,0.0,2.8,15.0,3.8,'11111222,11111222,11111222' 
TCOON,ioos:station:TCOON:031:1,2019-11-03T15:18:00Z,28.4073,-96.7122,0.0,3.8,22.0,5.8,'11111222,11111222,11111222' 
TCOON,ioos:station:TCOON:031:1,2019-11-03T16:18:00Z,28.4073,-96.7122,0.0,3.8,43.0,6.3,'11111222,11111222,11111222' 
TCOON,ioos:station:TCOON:031:1,2019-11-03T17:36:00Z,28.4073,-96.7122,0.0,4.1,48.0,6.7,'11111222,11111222,11111222' 
TCOON,ioos:station:TCOON:031:1,2019-11-03T18:18:00Z,28.4073,-96.7122,0.0,4.9,113.0,6.4,'11111222,11111222,11111222' 
TCOON,ioos:station:TCOON:031:1,2019-11-03T19:18:00Z,28.4073,-96.7122,0.0,4.0,97.0,7.7,'11111222,11111222,11111222' 
TCOON,ioos:station:TCOON:031:1,2019-11-03T20:18:00Z,28.4073,-96.7122,0.0,5.2,74.0,7.0,'11111222,11111222,11111222' 
TCOON,ioos:station:TCOON:031:1,2019-11-03T21:18:00Z,28.4073,-96.7122,0.0,3.9,110.0,7.6,'11111222,11111222,11111222' 
TCOON,ioos:station:TCOON:031:1,2019-11-03T22:18:00Z,28.4073,-96.7122,0.0,5.2,93.0,6.9,'11111222,11111222,11111222' 
TCOON,ioos:station:TCOON:031:1,2019-11-03T23:18:00Z,28.4073,-96.7122,0.0,2.8,91.0,3.7,'11111222,11111222,11111222' 
TCOON,ioos:station:TCOON:031:1,2019-11-04T00:18:00Z,28.4073,-96.7122,0.0,1.6,45.0,2.4,'11111222,11111222,11111222' 
TCOON,ioos:station:TCOON:031:1,2019-11-04T01:18:00Z,28.4073,-96.7122,0.0,2.6,16.0,3.3,'11111222,11111222,11111222' 
TCOON,ioos:station:TCOON:031:1,2019-11-04T02:18:00Z,28.4073,-96.7122,0.0,2.5,24.0,4.1,'11111222,11111222,11111222' 
TCOON,ioos:station:TCOON:031:1,2019-11-04T03:18:00Z,28.4073,-96.7122,0.0,2.1,20.0,3.0,'11111222,11111222,11111222' 
TCOON,ioos:station:TCOON:031:1,2019-11-04T04:18:00Z,28.4073,-96.7122,0.0,2.4,24.0,3.3,'11111222,11111222,11111222' 
TCOON,ioos:station:TCOON:031:1,2019-11-04T05:18:00Z,28.4073,-96.7122,0.0,2.0,28.0,2.4,'11111222,11111222,11111222' 
TCOON,ioos:station:TCOON:031:1,2019-11-04T15:54:00Z,28.4073,-96.7122,0.0,1.0,30.0,1.8,'11111222,11111222,11111222' 
TCOON,ioos:station:TCOON:031:1,2019-11-04T16:18:00Z,28.4073,-96.7122,0.0,0.9,80.0,1.3,'11111222,11111222,11111222' 
TCOON,ioos:station:TCOON:031:1,2019-11-04T17:18:00Z,28.4073,-96.7122,0.0,2.1,161.0,2.3,'11111222,11111222,11111222' 
TCOON,ioos:station:TCOON:031:1,2019-11-04T18:18:00Z,28.4073,-96.7122,0.0,3.3,149.0,3.4,'11111222,11111222,11111222' 
TCOON,ioos:station:TCOON:031:1,2019-11-04T19:24:00Z,28.4073,-96.7122,0.0,3.9,153.0,4.3,'11111222,11111222,11111222' 
TCOON,ioos:station:TCOON:031:1,2019-11-04T20:18:00Z,28.4073,-96.7122,0.0,4.5,155.0,4.9,'11111222,11111222,11111222' 
TCOON,ioos:station:TCOON:031:1,2019-11-04T21:18:00Z,28.4073,-96.7122,0.0,3.5,167.0,3.6,'11111222,11111222,11111222' 
TCOON,ioos:station:TCOON:031:1,2019-11-04T22:18:00Z,28.4073,-96.7122,0.0,4.1,146.0,4.8,'11111222,11111222,11111222' 
TCOON,ioos:station:TCOON:031:1,2019-11-04T23:18:00Z,28.4073,-96.7122,0.0,3.4,109.0,4.4,'11111222,11111222,11111222' 
TCOON,ioos:station:TCOON:031:1,2019-11-05T00:18:00Z,28.4073,-96.7122,0.0,3.7,98.0,4.4,'11111222,11111222,11111222' 
TCOON,ioos:station:TCOON:031:1,2019-11-05T01:18:00Z,28.4073,-96.7122,0.0,2.8,91.0,3.8,'11111222,11111222,11111222' 
TCOON,ioos:station:TCOON:031:1,2019-11-05T02:18:00Z,28.4073,-96.7122,0.0,1.9,86.0,2.6,'11111222,11111222,11111222' 
TCOON,ioos:station:TCOON:031:1,2019-11-05T03:18:00Z,28.4073,-96.7122,0.0,2.8,102.0,3.4,'11111222,11111222,11111222' 
TCOON,ioos:station:TCOON:031:1,2019-11-05T04:18:00Z,28.4073,-96.7122,0.0,2.5,110.0,3.5,'11111222,11111222,11111222' 
TCOON,ioos:station:TCOON:031:1,2019-11-05T05:18:00Z,28.4073,-96.7122,0.0,3.3,128.0,4.0,'11111222,11111222,11111222' 
TCOON,ioos:station:TCOON:031:1,2019-11-05T06:18:00Z,28.4073,-96.7122,0.0,3.1,135.0,3.9,'11111222,11111222,11111222' 
TCOON,ioos:station:TCOON:031:1,2019-11-05T07:18:00Z,28.4073,-96.7122,0.0,1.4,139.0,1.9,'11111222,11111222,11111222' 
TCOON,ioos:station:TCOON:031:1,2019-11-05T08:18:00Z,28.4073,-96.7122,0.0,1.1,45.0,1.4,'11111222,11111222,11111222' 
TCOON,ioos:station:TCOON:031:1,2019-11-05T09:18:00Z,28.4073,-96.7122,0.0,1.2,39.0,1.6,'11111222,11111222,11111222' 
TCOON,ioos:station:TCOON:031:1,2019-11-05T10:18:00Z,28.4073,-96.7122,0.0,2.2,7.0,2.6,'11111222,11111222,11111222' 
TCOON,ioos:station:TCOON:031:1,2019-11-05T11:18:00Z,28.4073,-96.7122,0.0,1.5,73.0,1.8,'11111222,11111222,11111222' 
TCOON,ioos:station:TCOON:031:1,2019-11-05T12:18:00Z,28.4073,-96.7122,0.0,1.5,351.0,1.8,'11111222,11111222,11111222' 
TCOON,ioos:station:TCOON:031:1,2019-11-05T13:18:00Z,28.4073,-96.7122,0.0,2.6,9.0,3.1,'11111222,11111222,11111222' 
TCOON,ioos:station:TCOON:031:1,2019-11-05T14:18:00Z,28.4073,-96.7122,0.0,1.6,40.0,2.6,'11111222,11111222,11111222' 
TCOON,ioos:station:TCOON:031:1,2019-11-05T15:18:00Z,28.4073,-96.7122,0.0,1.7,25.0,3.1,'11111222,11111222,11111222' 
TCOON,ioos:station:TCOON:031:1,2019-11-05T16:18:00Z,28.4073,-96.7122,0.0,2.8,44.0,3.7,'11111222,11111222,11111222' 
TCOON,ioos:station:TCOON:031:1,2019-11-05T17:18:00Z,28.4073,-96.7122,0.0,3.8,97.0,4.8,'11111222,11111222,11111222' 
TCOON,ioos:station:TCOON:031:1,2019-11-05T18:18:00Z,28.4073,-96.7122,0.0,3.0,93.0,4.2,'11111222,11111222,11111222' 
TCOON,ioos:station:TCOON:031:1,2019-11-05T19:18:00Z,28.4073,-96.7122,0.0,3.5,91.0,5.4,'11111222,11111222,11111222' 
TCOON,ioos:station:TCOON:031:1,2019-11-05T20:18:00Z,28.4073,-96.7122,0.0,3.4,83.0,6.0,'11111222,11111222,11111222' 
TCOON,ioos:station:TCOON:031:1,2019-11-05T21:18:00Z,28.4073,-96.7122,0.0,4.1,83.0,5.5,'11111222,11111222,11111222' 
TCOON,ioos:station:TCOON:031:1,2019-11-05T22:18:00Z,28.4073,-96.7122,0.0,4.0,80.0,5.8,'11111222,11111222,11111222' 
TCOON,ioos:station:TCOON:031:1,2019-11-05T23:18:00Z,28.4073,-96.7122,0.0,3.1,79.0,4.1,'11111222,11111222,11111222' 
TCOON,ioos:station:TCOON:031:1,2019-11-06T00:18:00Z,28.4073,-96.7122,0.0,4.1,92.0,5.1,'11111222,11111222,11111222' 
TCOON,ioos:station:TCOON:031:1,2019-11-06T01:18:00Z,28.4073,-96.7122,0.0,2.6,88.0,3.3,'11111222,11111222,11111222' 
TCOON,ioos:station:TCOON:031:1,2019-11-06T02:18:00Z,28.4073,-96.7122,0.0,4.4,81.0,5.8,'11111222,11111222,11111222' 
TCOON,ioos:station:TCOON:031:1,2019-11-06T03:18:00Z,28.4073,-96.7122,0.0,2.0,76.0,3.9,'11111222,11111222,11111222' 
TCOON,ioos:station:TCOON:031:1,2019-11-06T04:18:00Z,28.4073,-96.7122,0.0,2.1,69.0,3.2,'11111222,11111222,11111222' 
TCOON,ioos:station:TCOON:031:1,2019-11-06T05:18:00Z,28.4073,-96.7122,0.0,3.6,95.0,4.7,'11111222,11111222,11111222' 
TCOON,ioos:station:TCOON:031:1,2019-11-06T06:18:00Z,28.4073,-96.7122,0.0,2.7,91.0,3.9,'11111222,11111222,11111222' 
TCOON,ioos:station:TCOON:031:1,2019-11-06T07:18:00Z,28.4073,-96.7122,0.0,2.4,82.0,3.3,'11111222,11111222,11111222' 
TCOON,ioos:station:TCOON:031:1,2019-11-06T08:18:00Z,28.4073,-96.7122,0.0,1.5,68.0,2.5,'11111222,11111222,11111222' 
TCOON,ioos:station:TCOON:031:1,2019-11-06T09:18:00Z,28.4073,-96.7122,0.0,1.0,12.0,1.3,'11111222,11111222,11111222' 
TCOON,ioos:station:TCOON:031:1,2019-11-06T10:24:00Z,28.4073,-96.7122,0.0,0.7,44.0,2.0,'11111222,11111222,11111222' 
TCOON,ioos:station:TCOON:031:1,2019-11-06T11:18:00Z,28.4073,-96.7122,0.0,1.3,45.0,1.8,'11111222,11111222,11111222' 
TCOON,ioos:station:TCOON:031:1,2019-11-06T12:18:00Z,28.4073,-96.7122,0.0,1.2,47.0,1.9,'11111222,11111222,11111222' 
TCOON,ioos:station:TCOON:031:1,2019-11-06T13:24:00Z,28.4073,-96.7122,0.0,1.9,26.0,2.9,'11111222,11111222,11111222' 
TCOON,ioos:station:TCOON:031:1,2019-11-06T14:18:00Z,28.4073,-96.7122,0.0,1.7,46.0,2.6,'11111222,11111222,11111222' 
TCOON,ioos:station:TCOON:031:1,2019-11-06T15:18:00Z,28.4073,-96.7122,0.0,2.4,76.0,3.7,'11111222,11111222,11111222' 
TCOON,ioos:station:TCOON:031:1,2019-11-06T16:18:00Z,28.4073,-96.7122,0.0,4.8,86.0,6.8,'11111222,11111222,11111222' 
TCOON,ioos:station:TCOON:031:1,2019-11-06T17:18:00Z,28.4073,-96.7122,0.0,5.5,104.0,8.1,'11111222,11111222,11111222' 
TCOON,ioos:station:TCOON:031:1,2019-11-06T18:18:00Z,28.4073,-96.7122,0.0,4.5,75.0,7.5,'11111222,11111222,11111222' 
TCOON,ioos:station:TCOON:031:1,2019-11-06T19:18:00Z,28.4073,-96.7122,0.0,5.2,75.0,7.4,'11111222,11111222,11111222' 
TCOON,ioos:station:TCOON:031:1,2019-11-06T20:18:00Z,28.4073,-96.7122,0.0,5.6,105.0,7.6,'11111222,11111222,11111222' 
TCOON,ioos:station:TCOON:031:1,2019-11-06T21:18:00Z,28.4073,-96.7122,0.0,4.8,80.0,6.6,'11111222,11111222,11111222' 
TCOON,ioos:station:TCOON:031:1,2019-11-06T22:18:00Z,28.4073,-96.7122,0.0,4.6,80.0,7.0,'11111222,11111222,11111222' 
TCOON,ioos:station:TCOON:031:1,2019-11-06T23:18:00Z,28.4073,-96.7122,0.0,3.4,70.0,5.5,'11111222,11111222,11111222' 
TCOON,ioos:station:TCOON:031:1,2019-11-07T00:18:00Z,28.4073,-96.7122,0.0,3.2,55.0,4.5,'11111222,11111222,11111222' 
TCOON,ioos:station:TCOON:031:1,2019-11-07T01:18:00Z,28.4073,-96.7122,0.0,3.1,42.0,4.5,'11111222,11111222,11111222' 
TCOON,ioos:station:TCOON:031:1,2019-11-07T02:18:00Z,28.4073,-96.7122,0.0,2.6,62.0,3.9,'11111222,11111222,11111222' 
TCOON,ioos:station:TCOON:031:1,2019-11-07T03:18:00Z,28.4073,-96.7122,0.0,2.9,42.0,4.7,'11111222,11111222,11111222' 
TCOON,ioos:station:TCOON:031:1,2019-11-07T04:18:00Z,28.4073,-96.7122,0.0,2.4,46.0,3.6,'11111222,11111222,11111222' 
TCOON,ioos:station:TCOON:031:1,2019-11-07T05:18:00Z,28.4073,-96.7122,0.0,2.5,38.0,3.3,'11111222,11111222,11111222' 
TCOON,ioos:station:TCOON:031:1,2019-11-07T06:18:00Z,28.4073,-96.7122,0.0,2.4,53.0,2.9,'11111222,11111222,11111222' 
TCOON,ioos:station:TCOON:031:1,2019-11-07T07:24:00Z,28.4073,-96.7122,0.0,1.6,45.0,2.1,'11111222,11111222,11111222' 
TCOON,ioos:station:TCOON:031:1,2019-11-07T08:18:00Z,28.4073,-96.7122,0.0,1.7,25.0,2.1,'11111222,11111222,11111222' 
TCOON,ioos:station:TCOON:031:1,2019-11-07T09:18:00Z,28.4073,-96.7122,0.0,1.5,33.0,2.1,'11111222,11111222,11111222' 
TCOON,ioos:station:TCOON:031:1,2019-11-07T10:18:00Z,28.4073,-96.7122,0.0,1.3,35.0,1.7,'11111222,11111222,11111222' 
TCOON,ioos:station:TCOON:031:1,2019-11-07T11:18:00Z,28.4073,-96.7122,0.0,1.6,345.0,2.1,'11111222,11111222,11111222' 
TCOON,ioos:station:TCOON:031:1,2019-11-07T12:18:00Z,28.4073,-96.7122,0.0,2.2,35.0,3.2,'11111222,11111222,11111222' 
TCOON,ioos:station:TCOON:031:1,2019-11-07T13:18:00Z,28.4073,-96.7122,0.0,1.7,33.0,2.8,'11111222,11111222,11111222' 
TCOON,ioos:station:TCOON:031:1,2019-11-07T14:18:00Z,28.4073,-96.7122,0.0,1.6,31.0,2.5,'11111222,11111222,11111222' 
TCOON,ioos:station:TCOON:031:1,2019-11-07T15:18:00Z,28.4073,-96.7122,0.0,1.7,67.0,3.4,'11111222,11111222,11111222' 
TCOON,ioos:station:TCOON:031:1,2019-11-07T16:18:00Z,28.4073,-96.7122,0.0,3.0,114.0,3.4,'11111222,11111222,11111222' 
TCOON,ioos:station:TCOON:031:1,2019-11-07T17:18:00Z,28.4073,-96.7122,0.0,4.1,116.0,4.8,'11111222,11111222,11111222' 
TCOON,ioos:station:TCOON:031:1,2019-11-07T18:18:00Z,28.4073,-96.7122,0.0,4.0,127.0,5.1,'11111222,11111222,11111222' 
TCOON,ioos:station:TCOON:031:1,2019-11-07T19:18:00Z,28.4073,-96.7122,0.0,5.0,126.0,6.1,'11111222,11111222,11111222' 
TCOON,ioos:station:TCOON:031:1,2019-11-07T20:18:00Z,28.4073,-96.7122,0.0,5.2,132.0,6.0,'11111222,11111222,11111222' 
TCOON,ioos:station:TCOON:031:1,2019-11-07T21:18:00Z,28.4073,-96.7122,0.0,2.8,350.0,4.7,'11111222,11111222,11111222' 
TCOON,ioos:station:TCOON:031:1,2019-11-07T22:18:00Z,28.4073,-96.7122,0.0,8.6,5.0,13.2,'11111222,11111222,11111222' 
TCOON,ioos:station:TCOON:031:1,2019-11-07T23:18:00Z,28.4073,-96.7122,0.0,7.0,358.0,11.9,'11111222,11111222,11111222' 
TCOON,ioos:station:TCOON:031:1,2019-11-08T00:18:00Z,28.4073,-96.7122,0.0,8.7,4.0,10.8,'11111222,11111222,11111222' 
TCOON,ioos:station:TCOON:031:1,2019-11-08T01:18:00Z,28.4073,-96.7122,0.0,6.2,343.0,8.3,'11111222,11111222,11111222' 
TCOON,ioos:station:TCOON:031:1,2019-11-08T02:18:00Z,28.4073,-96.7122,0.0,6.4,343.0,9.1,'11111222,11111222,11111222' 
TCOON,ioos:station:TCOON:031:1,2019-11-08T03:18:00Z,28.4073,-96.7122,0.0,6.3,340.0,9.5,'11111222,11111222,11111222' 
TCOON,ioos:station:TCOON:031:1,2019-11-08T04:18:00Z,28.4073,-96.7122,0.0,6.8,346.0,9.5,'11111222,11111222,11111222' 
TCOON,ioos:station:TCOON:031:1,2019-11-08T05:18:00Z,28.4073,-96.7122,0.0,7.5,347.0,12.3,'11111222,11111222,11111222' 
TCOON,ioos:station:TCOON:031:1,2019-11-08T06:18:00Z,28.4073,-96.7122,0.0,7.1,346.0,11.4,'11111222,11111222,11111222' 
TCOON,ioos:station:TCOON:031:1,2019-11-08T07:18:00Z,28.4073,-96.7122,0.0,7.1,337.0,11.2,'11111222,11111222,11111222' 
TCOON,ioos:station:TCOON:031:1,2019-11-08T08:18:00Z,28.4073,-96.7122,0.0,7.3,333.0,10.4,'11111222,11111222,11111222' 
TCOON,ioos:station:TCOON:031:1,2019-11-08T09:18:00Z,28.4073,-96.7122,0.0,8.1,335.0,10.6,'11111222,11111222,11111222' 
TCOON,ioos:station:TCOON:031:1,2019-11-08T10:18:00Z,28.4073,-96.7122,0.0,6.0,342.0,8.6,'11111222,11111222,11111222' 
TCOON,ioos:station:TCOON:031:1,2019-11-08T11:18:00Z,28.4073,-96.7122,0.0,5.3,342.0,10.3,'11111222,11111222,11111222' 
TCOON,ioos:station:TCOON:031:1,2019-11-08T12:18:00Z,28.4073,-96.7122,0.0,5.9,341.0,8.5,'11111222,11111222,11111222' 
TCOON,ioos:station:TCOON:031:1,2019-11-08T13:18:00Z,28.4073,-96.7122,0.0,6.3,332.0,9.3,'11111222,11111222,11111222' 
TCOON,ioos:station:TCOON:031:1,2019-11-08T14:18:00Z,28.4073,-96.7122,0.0,5.9,350.0,8.4,'11111222,11111222,11111222' 
TCOON,ioos:station:TCOON:031:1,2019-11-08T15:18:00Z,28.4073,-96.7122,0.0,6.0,342.0,8.8,'11111222,11111222,11111222' 
TCOON,ioos:station:TCOON:031:1,2019-11-08T16:18:00Z,28.4073,-96.7122,0.0,6.2,343.0,8.0,'11111222,11111222,11111222' 
TCOON,ioos:station:TCOON:031:1,2019-11-08T17:18:00Z,28.4073,-96.7122,0.0,5.7,341.0,9.5,'11111222,11111222,11111222' 
TCOON,ioos:station:TCOON:031:1,2019-11-08T18:18:00Z,28.4073,-96.7122,0.0,5.8,334.0,8.4,'11111222,11111222,11111222' 
TCOON,ioos:station:TCOON:031:1,2019-11-08T19:18:00Z,28.4073,-96.7122,0.0,7.0,337.0,10.4,'11111222,11111222,11111222' 
TCOON,ioos:station:TCOON:031:1,2019-11-08T20:18:00Z,28.4073,-96.7122,0.0,5.5,334.0,7.2,'11111222,11111222,11111222' 
TCOON,ioos:station:TCOON:031:1,2019-11-08T21:18:00Z,28.4073,-96.7122,0.0,5.4,334.0,8.3,'11111222,11111222,11111222' 
TCOON,ioos:station:TCOON:031:1,2019-11-08T22:18:00Z,28.4073,-96.7122,0.0,5.6,330.0,8.0,'11111222,11111222,11111222' 
TCOON,ioos:station:TCOON:031:1,2019-11-08T23:18:00Z,28.4073,-96.7122,0.0,5.3,337.0,8.1,'11111222,11111222,11111222' 
TCOON,ioos:station:TCOON:031:1,2019-11-09T00:18:00Z,28.4073,-96.7122,0.0,4.2,336.0,6.4,'11111222,11111222,11111222' 
TCOON,ioos:station:TCOON:031:1,2019-11-09T01:18:00Z,28.4073,-96.7122,0.0,4.4,332.0,7.1,'11111222,11111222,11111222' 
TCOON,ioos:station:TCOON:031:1,2019-11-09T02:18:00Z,28.4073,-96.7122,0.0,4.9,344.0,7.0,'11111222,11111222,11111222' 
TCOON,ioos:station:TCOON:031:1,2019-11-09T03:18:00Z,28.4073,-96.7122,0.0,3.2,336.0,4.5,'11111222,11111222,11111222' 
TCOON,ioos:station:TCOON:031:1,2019-11-09T04:18:00Z,28.4073,-96.7122,0.0,3.4,325.0,4.6,'11111222,11111222,11111222' 
TCOON,ioos:station:TCOON:031:1,2019-11-09T05:18:00Z,28.4073,-96.7122,0.0,3.2,328.0,5.0,'11111222,11111222,11111222' 
TCOON,ioos:station:TCOON:031:1,2019-11-09T06:18:00Z,28.4073,-96.7122,0.0,2.7,338.0,4.5,'11111222,11111222,11111222' 
TCOON,ioos:station:TCOON:031:1,2019-11-09T07:18:00Z,28.4073,-96.7122,0.0,2.7,328.0,3.7,'11111222,11111222,11111222' 
TCOON,ioos:station:TCOON:031:1,2019-11-09T08:18:00Z,28.4073,-96.7122,0.0,2.2,324.0,3.2,'11111222,11111222,11111222' 
TCOON,ioos:station:TCOON:031:1,2019-11-09T09:18:00Z,28.4073,-96.7122,0.0,1.8,328.0,2.9,'11111222,11111222,11111222' 
TCOON,ioos:station:TCOON:031:1,2019-11-09T10:18:00Z,28.4073,-96.7122,0.0,2.5,327.0,3.4,'11111222,11111222,11111222' 
TCOON,ioos:station:TCOON:031:1,2019-11-09T11:18:00Z,28.4073,-96.7122,0.0,3.0,346.0,4.1,'11111222,11111222,11111222' 
TCOON,ioos:station:TCOON:031:1,2019-11-09T12:18:00Z,28.4073,-96.7122,0.0,1.9,341.0,2.8,'11111222,11111222,11111222' 
TCOON,ioos:station:TCOON:031:1,2019-11-09T13:18:00Z,28.4073,-96.7122,0.0,1.9,354.0,2.4,'11111222,11111222,11111222' 
TCOON,ioos:station:TCOON:031:1,2019-11-09T14:18:00Z,28.4073,-96.7122,0.0,2.4,358.0,3.1,'11111222,11111222,11111222' 
TCOON,ioos:station:TCOON:031:1,2019-11-09T15:18:00Z,28.4073,-96.7122,0.0,2.7,346.0,4.4,'11111222,11111222,11111222' 
TCOON,ioos:station:TCOON:031:1,2019-11-09T16:18:00Z,28.4073,-96.7122,0.0,3.2,357.0,5.1,'11111222,11111222,11111222' 
TCOON,ioos:station:TCOON:031:1,2019-11-09T17:18:00Z,28.4073,-96.7122,0.0,2.7,337.0,4.2,'11111222,11111222,11111222' 
TCOON,ioos:station:TCOON:031:1,2019-11-09T18:18:00Z,28.4073,-96.7122,0.0,2.8,355.0,4.5,'11111222,11111222,11111222' 
TCOON,ioos:station:TCOON:031:1,2019-11-09T19:18:00Z,28.4073,-96.7122,0.0,0.3,43.0,2.7,'11111222,11111222,11111222' 
TCOON,ioos:station:TCOON:031:1,2019-11-09T20:18:00Z,28.4073,-96.7122,0.0,1.2,148.0,2.3,'11111222,11111222,11111222' 
TCOON,ioos:station:TCOON:031:1,2019-11-09T21:18:00Z,28.4073,-96.7122,0.0,2.5,8.0,3.7,'11111222,11111222,11111222' 